Voltar ao catálogo

FENGYUN 1C DEB

AtivoSSO
NORAD 31622·DEBRIS·🇨🇳 China

Lançado May 10, 1999 de Taiyuan Satellite Launch Center

Loading…

Próximas Passagens (próximas 24 horas)

TLE

AtualizadoSource: Space-Track

Época: Sep 14, 2026, 13:38 UTC

1 31622U 99025CAC 26257.56871383  .00003493  00000-0  11228-2 0  9997
2 31622  98.8197   4.8165 0015031 239.8654 241.8926 14.39971229997384

Acompanhe FENGYUN 1C DEB em tempo real com AllMySat

Download on the App Store